SCP
0 0 0 0 0 0 0 0 0 0 0 0 0 0 0 0 0 0 0 0 0 0
0 0 0 0 0 0 0 0 0 0 0 0 0 0 0 0 0 0 0 0 0 0
0 0 0 0 0 0 0 0 0 0 0 0 0 0 0 0 0 0 0 0 0 0
0 0 0 0 0 0 0 0 0 0 0 0 0 0 0 0 0 0 0 0 0 0
0 0 0 0 0 0 0 0 0 0 0 0 0 0 0 0 0 0 0 0 0 0
0 0 0 0 0 0 0 0 0 0 0 0 0 0 0 0 0 0 0 0 0 0
0 0 0 0 0 0 0 0 0 0 0 0 0 0 0 0 0 0 0 0 0 0
0 0 0 0 0 0 0 0 0 0 0 0 0 0 0 0 0 0 0 0 0 0
0 0 0 0 0 0 0 0 0 0 0 0 0 0 0 0 0 0 0 0 0 0
0 0 0 0 0 0 0 0 0 0 0 0 0 0 0 0 0 0 0 0 0 0
0 0 0 0 0 0 0 0 0 0 0 0 0 0 0 0 0 0 0 0 0 0
0 0 0 0 0 0 0 0 0 0 0 0 0 0 0 0 0 0 0 0 0 0
0 0 0 0 0 0 0 0 0 0 0 0 0 0 0 0 0 0 0 0 0 0
0 0 0 0 0 0 0 0 0 0 0 0 0 0 0 0 0 0 0 0 0 0
Wind_Speed_500mb
21 20 19 19 18 20 23 25 26 27 28 31 33 35 36 36 35 34 33 32 31 30
29 29 28 26 26 28 28 28 28 29 31 34 36 37 37 38 38 36 35 33 31 29
37 37 35 34 33 30 29 29 32 34 35 37 37 37 37 36 35 34 32 29 27 24
44 44 42 39 36 34 35 35 35 35 36 37 37 36 34 33 32 30 27 24 21 17
49 51 48 44 43 41 40 39 38 38 38 37 35 33 30 27 25 24 22 20 17 14
53 56 54 51 50 47 44 42 40 40 39 36 32 29 26 24 23 23 21 19 16 15
59 59 58 57 54 49 46 47 44 40 38 34 30 28 26 25 25 24 23 22 20 21
63 61 61 59 56 53 50 48 45 41 37 34 31 29 28 28 26 25 24 24 24 24
65 63 61 57 55 52 50 47 44 40 37 34 32 30 30 29 26 26 25 24 25 24
69 66 60 56 54 52 49 46 43 40 37 35 34 31 30 27 26 25 24 23 24 26
73 67 61 58 55 53 51 48 45 43 40 38 36 34 27 24 24 25 25 24 24 26
75 67 59 57 54 53 51 48 46 44 41 38 35 34 26 24 25 25 27 28 26 27
68 62 58 55 54 51 48 45 44 41 40 38 35 33 31 23 26 27 28 27 28 30
63 60 56 53 52 49 48 45 44 41 40 36 32 30 38 28 27 31 31 28 29 31
Wind_Direction_500mb
226 229 236 240 248 260 267 269 273 277 282 285 287 286 285 283 281 279 276 274 271 269
239 240 241 244 254 263 268 274 279 282 286 288 286 284 284 282 279 276 272 268 266 265
247 246 244 251 258 262 267 273 280 284 286 286 285 285 282 277 274 269 265 260 255 251
252 251 251 254 257 260 265 270 276 280 284 285 287 283 278 274 268 262 255 246 234 222
256 255 255 253 256 258 263 267 272 277 281 280 280 278 275 269 259 248 237 225 218 221
258 256 254 255 255 256 260 264 266 270 272 273 271 269 263 252 242 233 228 231 237 248
256 255 254 255 255 257 259 261 262 262 262 261 258 254 249 240 234 233 240 247 256 267
254 252 252 253 255 256 257 258 258 257 256 253 249 244 239 236 237 242 251 262 270 278
253 252 252 251 251 252 252 252 252 250 249 248 246 243 236 235 241 248 256 265 274 280
253 252 252 252 251 250 249 248 246 245 244 245 246 242 239 239 246 252 256 263 272 280
250 250 248 247 247 246 245 243 240 238 236 236 241 245 240 242 252 259 265 267 273 283
247 246 246 247 246 243 241 237 233 231 233 235 241 251 247 250 261 269 274 279 285 289
245 245 246 245 242 240 238 235 232 229 229 233 239 251 259 253 261 267 273 279 286 285
241 242 242 240 238 235 233 231 228 228 229 232 238 252 267 270 272 274 275 275 280 284
Wind_Speed_850mb
21 20 19 19 18 20 23 25 26 27 28 31 33 35 36 36 35 34 33 32 31 30
29 29 28 26 26 28 28 28 28 29 31 34 36 37 37 38 38 36 35 33 31 29
37 37 35 34 33 30 29 29 32 34 35 37 37 37 37 36 35 34 32 29 27 24
44 44 42 39 36 34 35 35 35 35 36 37 37 36 34 33 32 30 27 24 21 17
49 51 48 44 43 41 40 39 38 38 38 37 35 33 30 27 25 24 22 20 17 14
53 56 54 51 50 47 44 42 40 40 39 36 32 29 26 24 23 23 21 19 16 15
59 59 58 57 54 49 46 47 44 40 38 34 30 28 26 25 25 24 23 22 20 21
63 61 61 59 56 53 50 48 45 41 37 34 31 29 28 28 26 25 24 24 24 24
65 63 61 57 55 52 50 47 44 40 37 34 32 30 30 29 26 26 25 24 25 24
69 66 60 56 54 52 49 46 43 40 37 35 34 31 30 27 26 25 24 23 24 26
73 67 61 58 55 53 51 48 45 43 40 38 36 34 27 24 24 25 25 24 24 26
75 67 59 57 54 53 51 48 46 44 41 38 35 34 26 24 25 25 27 28 26 27
68 62 58 55 54 51 48 45 44 41 40 38 35 33 31 23 26 27 28 27 28 30
63 60 56 53 52 49 48 45 44 41 40 36 32 30 38 28 27 31 31 28 29 31
Wind_Direction_850mb
226 229 236 240 248 260 267 269 273 277 282 285 287 286 285 283 281 279 276 274 271 269
239 240 241 244 254 263 268 274 279 282 286 288 286 284 284 282 279 276 272 268 266 265
247 246 244 251 258 262 267 273 280 284 286 286 285 285 282 277 274 269 265 260 255 251
252 251 251 254 257 260 265 270 276 280 284 285 287 283 278 274 268 262 255 246 234 222
256 255 255 253 256 258 263 267 272 277 281 280 280 278 275 269 259 248 237 225 218 221
258 256 254 255 255 256 260 264 266 270 272 273 271 269 263 252 242 233 228 231 237 248
256 255 254 255 255 257 259 261 262 262 262 261 258 254 249 240 234 233 240 247 256 267
254 252 252 253 255 256 257 258 258 257 256 253 249 244 239 236 237 242 251 262 270 278
253 252 252 251 251 252 252 252 252 250 249 248 246 243 236 235 241 248 256 265 274 280
253 252 252 252 251 250 249 248 246 245 244 245 246 242 239 239 246 252 256 263 272 280
250 250 248 247 247 246 245 243 240 238 236 236 241 245 240 242 252 259 265 267 273 283
247 246 246 247 246 243 241 237 233 231 233 235 241 251 247 250 261 269 274 279 285 289
245 245 246 245 242 240 238 235 232 229 229 233 239 251 259 253 261 267 273 279 286 285
241 242 242 240 238 235 233 231 228 228 229 232 238 252 267 270 272 274 275 275 280 284